GEFSSE_con_probscp_210.txt.gz
Probability
1 1 2 3 3 3 3 3 3 3 3 2 2 1 1 2 2 3 3 2 1 1 1 2 4 3 2 1 1 2 1 0 0 0 0 0 0 1 1 1 0 0 0
1 1 2 3 3 3 3 3 3 3 2 1 1 1 1 1 2 2 2 1 0 0 0 1 3 2 1 1 2 2 1 0 0 0 0 0 0 0 0 0 0 0 0
0 1 2 3 4 4 4 3 3 2 1 1 2 2 2 2 1 1 1 0 0 0 0 1 2 2 1 2 3 2 1 0 0 0 0 0 0 0 0 0 0 0 0
0 1 2 4 4 4 4 3 2 1 0 1 2 2 2 1 1 0 0 0 0 0 0 0 1 1 2 3 3 1 0 0 0 0 0 0 0 0 0 0 0 0 0
0 1 2 4 3 2 2 3 3 2 1 0 1 1 1 0 0 0 0 0 0 0 0 0 0 1 2 2 2 1 0 0 0 0 0 0 0 0 0 0 0 0 0
0 1 3 4 4 2 1 3 4 4 2 1 0 0 0 0 0 0 0 0 0 0 0 0 0 0 1 1 1 0 0 0 0 0 0 0 0 0 0 0 0 0 0
0 1 4 6 6 4 2 3 3 3 2 1 0 0 0 0 0 0 0 0 0 1 1 0 0 0 0 0 0 0 0 0 0 0 0 0 0 0 0 0 0 0 0
1 2 4 5 6 5 4 3 1 1 1 0 0 0 0 0 0 0 0 0 0 1 1 0 0 0 0 0 0 0 0 0 0 0 0 0 0 0 0 0 0 0 0
3 3 3 4 4 4 4 3 1 0 0 0 0 0 0 1 1 1 1 0 0 0 0 0 0 0 0 0 0 0 0 0 0 0 0 0 0 0 0 0 0 0 0
3 3 3 3 3 3 3 2 1 0 0 0 0 0 0 1 1 1 0 0 0 0 0 0 0 0 0 1 1 1 0 0 0 0 0 0 0 0 0 0 0 0 0
2 2 3 3 2 1 1 1 1 0 1 1 0 0 0 0 0 0 0 0 0 0 0 0 0 0 0 1 2 1 0 0 0 0 0 0 0 0 0 0 0 0 0
1 1 1 2 2 1 0 0 0 1 2 2 1 0 0 0 0 0 0 0 1 0 0 0 0 0 0 1 1 0 0 0 0 0 0 0 0 0 0 0 0 0 0
1 0 0 1 1 1 0 0 0 1 2 2 1 0 0 0 0 0 0 0 0 0 0 0 0 0 0 0 0 0 0 0 0 0 0 0 0 0 0 0 0 0 0
0 0 0 0 0 0 0 0 0 0 2 3 2 1 0 0 0 0 0 0 0 0 0 0 0 0 0 0 0 0 0 0 0 0 0 0 0 0 0 0 0 0 0
0 0 0 0 0 0 1 1 0 0 1 2 2 1 0 0 0 0 0 0 0 0 0 0 0 0 0 0 0 0 0 0 0 0 0 0 0 0 0 0 0 0 0
0 0 0 0 0 0 1 1 0 0 1 1 1 1 0 0 0 0 0 0 0 0 0 0 0 0 0 0 0 0 0 0 0 0 0 0 0 0 1 1 0 0 1
0 0 0 0 0 0 1 1 0 0 0 0 0 1 0 0 0 0 0 0 0 0 0 0 0 0 0 0 0 0 0 0 0 0 0 0 0 0 1 1 1 1 2
1 0 0 0 0 0 0 0 0 0 0 0 0 0 0 0 0 0 0 0 0 0 0 0 0 0 0 0 0 0 0 0 0 0 0 0 0 0 1 1 1 2 2
2 2 1 1 1 1 0 1 1 1 1 0 0 0 0 0 0 0 0 0 0 0 0 0 0 0 0 0 0 0 0 0 0 0 0 0 0 0 0 0 1 1 1
3 4 4 3 3 3 2 3 3 3 2 1 0 0 0 0 0 0 0 0 0 0 0 0 0 0 0 0 0 0 0 0 0 0 0 0 0 0 0 0 0 0 1
4 5 5 4 5 5 5 5 5 4 2 1 0 0 0 0 0 0 1 0 0 0 0 0 0 0 0 0 0 0 0 0 0 0 0 0 0 0 0 0 0 0 1
5 5 4 4 5 6 6 6 5 4 1 0 0 0 0 0 0 0 0 0 0 0 0 0 0 0 0 0 0 0 0 0 0 0 0 0 0 0 0 0 0 0 1
8 7 6 5 6 7 7 7 6 4 2 1 1 0 0 0 0 0 0 0 0 0 0 0 0 0 0 0 0 0 0 0 0 0 0 0 0 0 0 0 0 0 0
13 12 10 9 8 9 9 9 8 5 3 2 2 1 0 0 0 1 1 1 1 0 0 0 0 0 0 0 1 1 0 0 0 0 0 0 0 0 0 0 0 0 0
17 16 14 12 10 10 10 10 8 6 4 3 3 2 1 0 0 1 2 2 1 0 0 1 1 1 0 1 2 2 1 1 1 0 0 0 0 0 0 0 0 0 0
19 17 15 12 11 10 10 9 7 6 5 4 3 2 1 0 0 1 2 2 1 0 1 2 2 2 1 1 2 3 2 2 2 1 0 0 0 0 0 0 0 0 0

GEFSSE_con_probscp_216.txt.gz
Probability
1 2 3 3 3 3 1 0 0 1 1 1 0 0 0 0 0 0 0 0 0 1 1 2 3 3 3 2 1 0 0 0 0 0 0 0 0 0 0 0 0 0 0
1 2 3 3 3 3 2 0 0 0 0 0 0 0 0 0 0 0 0 0 1 2 3 4 3 2 2 1 0 0 0 0 0 0 0 0 0 0 0 0 0 0 0
1 2 3 3 3 3 2 0 0 0 0 0 0 0 0 0 0 0 1 1 2 3 4 4 3 2 2 1 0 0 0 0 0 0 0 0 0 0 0 0 0 0 0
2 2 3 3 3 3 2 1 0 0 0 0 0 0 1 1 0 0 1 2 3 3 3 3 2 2 1 1 0 0 0 0 0 0 0 0 0 0 0 0 0 0 0
2 3 4 4 3 3 3 2 1 0 0 0 0 1 2 2 1 1 1 3 3 3 2 2 2 2 2 1 0 0 0 0 0 0 0 0 0 0 0 0 0 0 0
1 1 3 4 4 4 4 3 1 0 0 0 0 1 2 3 3 1 1 2 2 2 2 2 3 3 3 1 0 0 0 0 0 0 0 0 0 0 0 0 0 0 0
0 0 2 4 5 6 6 5 3 1 1 1 1 2 3 3 2 1 0 1 1 1 1 2 3 2 2 1 0 0 1 0 0 0 0 0 0 0 0 0 0 0 0
0 0 1 3 5 6 6 5 3 2 2 2 2 2 2 2 1 0 0 0 0 0 1 1 1 1 1 0 0 0 0 0 0 0 0 0 0 0 0 0 0 0 0
0 0 1 2 3 3 3 3 2 1 1 1 1 1 1 1 0 0 0 1 0 0 0 0 0 0 0 0 1 1 1 0 0 0 0 0 0 0 0 0 0 0 0
0 0 0 1 1 1 1 2 1 1 1 1 0 0 0 0 0 0 0 0 0 0 0 0 0 0 0 0 1 2 1 0 0 0 0 0 0 0 0 0 0 0 0
0 0 0 0 0 0 0 1 2 2 2 1 0 0 0 0 0 0 0 0 0 0 0 0 0 0 0 0 1 1 1 0 0 0 0 0 0 0 0 0 0 0 0
0 0 0 0 0 0 0 1 2 2 2 1 1 0 0 0 0 0 0 1 0 0 0 0 0 1 0 0 0 0 0 0 0 0 0 0 0 0 0 0 0 0 0
0 0 0 0 0 0 0 0 1 2 2 2 1 0 0 0 0 0 0 0 0 0 0 0 0 0 0 0 0 0 0 0 0 0 0 0 0 0 0 0 0 0 0
0 0 0 0 0 1 1 1 1 1 2 1 1 1 0 0 0 0 0 0 0 0 0 0 0 0 0 0 0 0 0 0 0 0 0 0 0 0 0 0 0 0 0
0 0 0 0 1 2 2 1 1 1 0 1 1 2 1 0 0 0 0 0 0 0 0 0 0 0 0 0 0 0 0 0 0 0 0 0 0 0 0 0 0 0 0
1 1 0 1 2 3 3 3 2 1 0 0 2 3 2 1 1 0 0 0 0 0 0 0 0 0 0 1 0 0 0 0 1 1 0 0 0 0 0 0 0 0 0
2 1 0 1 2 3 3 3 2 1 0 1 2 3 3 3 2 1 0 0 0 0 0 0 0 0 0 0 0 0 0 1 2 2 1 0 0 0 0 0 0 0 0
1 1 1 1 3 3 3 3 1 1 1 2 3 4 5 4 3 2 1 0 0 0 0 0 0 0 0 0 0 0 1 2 3 2 1 0 0 0 0 0 0 0 0
1 3 4 5 5 4 4 3 2 2 4 5 5 5 5 5 4 2 1 0 0 0 0 0 0 0 0 0 0 1 2 3 3 2 1 0 0 0 0 0 0 0 0
4 7 10 10 9 8 7 7 6 5 7 7 7 6 5 5 3 2 2 1 0 0 0 0 0 0 0 0 0 1 2 3 3 3 2 1 0 0 0 0 0 0 1
12 15 16 16 15 14 13 12 10 9 9 9 8 6 5 4 3 3 3 3 1 1 1 0 0 0 0 1 1 1 1 2 3 3 2 1 0 0 0 0 0 0 1
19 20 21 21 21 20 18 15 14 12 11 9 8 6 4 3 3 4 6 5 4 3 2 1 1 2 2 3 4 2 1 1 2 2 3 2 1 1 0 0 0 0 1
23 22 22 24 25 24 20 17 15 14 13 10 7 6 4 4 4 6 7 7 6 6 4 3 3 4 4 5 6 5 3 2 3 3 3 3 3 2 1 0 0 0 0
22 20 20 23 26 26 23 19 17 16 13 10 7 6 6 6 7 7 7 8 8 8 7 6 5 6 6 6 6 6 5 5 5 4 3 3 3 3 1 0 0 0 0
17 17 18 23 28 30 27 23 19 17 13 9 8 8 8 8 9 8 8 9 10 10 9 10 9 8 8 8 8 7 7 7 7 6 5 5 4 3 2 0 0 0 0
14 14 17 26 34 35 31 26 21 18 14 11 10 9 8 9 9 8 9 10 11 11 11 13 13 11 10 10 10 9 9 9 9 8 8 7 5 3 1 0 0 0 0

GEFSSE_con_probscp_222.txt.gz
Probability
0 0 0 0 0 0 0 0 0 0 0 0 0 0 0 0 0 0 1 4 5 5 4 4 2 1 0 0 0 0 0 0 0 0 0 0 0 0 0 0 0 0 0
0 0 0 0 0 0 0 0 0 0 0 0 0 0 0 0 0 0 1 3 5 4 4 4 3 1 0 0 0 0 0 0 0 0 0 0 0 0 0 0 0 0 0
0 0 0 0 0 0 0 0 0 0 0 0 0 0 0 0 0 0 1 3 4 3 3 4 3 1 0 0 0 0 0 0 0 0 0 0 0 0 0 0 0 0 0
1 1 0 0 0 0 0 0 0 0 0 0 0 0 0 1 1 0 1 2 3 2 2 3 3 1 0 1 1 1 0 0 0 0 0 0 0 0 0 0 0 0 0
2 1 0 0 0 0 0 0 0 0 0 0 0 0 1 2 2 1 0 1 2 2 2 3 2 1 0 1 1 1 0 1 1 0 0 0 0 0 0 0 0 0 0
1 1 0 0 1 0 0 0 0 0 0 0 1 1 2 3 3 2 1 1 2 3 2 2 2 1 0 0 0 0 1 2 1 0 0 0 0 0 0 0 0 0 0
1 2 1 1 1 0 0 0 0 0 1 1 2 2 2 3 3 2 1 2 3 3 3 2 1 0 0 0 0 0 1 2 1 0 0 0 0 0 0 0 0 0 0
3 3 3 3 2 1 0 0 0 1 1 2 2 2 2 2 2 1 1 1 2 3 2 1 1 0 0 0 0 0 1 1 1 0 0 0 0 0 0 0 0 0 0
4 3 3 3 3 2 1 1 1 2 2 1 1 1 1 1 1 0 0 0 0 1 1 0 0 0 0 0 0 0 0 1 0 0 0 0 0 0 0 0 0 0 0
3 3 3 5 6 5 3 3 3 3 2 1 0 0 0 0 0 0 0 0 0 0 0 0 0 0 0 0 0 0 1 1 1 0 0 0 0 0 0 0 0 0 0
2 3 5 8 8 7 5 4 4 3 2 1 0 0 0 0 0 0 0 0 0 0 0 0 1 1 1 1 1 1 1 1 1 0 0 0 0 0 0 0 0 0 0
3 4 7 9 8 6 5 5 5 4 3 1 1 0 0 0 0 0 0 0 0 0 0 1 2 2 2 2 3 2 1 0 0 0 0 1 1 1 1 1 0 0 0
5 6 8 9 7 5 5 5 5 4 4 3 3 1 0 0 0 0 1 1 1 0 1 2 2 2 1 1 1 1 1 1 1 1 2 4 4 3 3 2 1 1 0
8 8 8 8 7 5 4 4 4 4 5 6 5 3 1 0 0 0 1 2 1 0 1 1 1 1 0 0 0 0 1 2 2 2 3 6 7 5 4 3 3 2 1
10 8 8 8 8 6 5 5 5 5 5 7 7 5 2 1 0 0 1 1 1 0 0 0 0 1 1 1 1 2 2 3 3 3 4 6 7 6 4 3 3 3 3
9 9 9 10 11 9 7 5 5 6 7 8 8 7 4 3 2 1 0 0 0 0 0 0 0 1 2 3 4 4 3 3 3 3 4 5 6 6 4 3 3 3 3
12 12 11 12 13 12 8 5 5 6 7 9 10 10 7 5 4 3 1 0 0 0 1 1 1 1 3 3 4 4 3 3 3 4 5 5 5 5 5 5 4 4 4
18 17 14 12 14 13 10 7 6 7 8 9 10 11 11 8 7 6 4 1 1 0 0 1 1 2 3 3 3 3 3 3 3 4 5 5 5 5 6 7 8 8 7
23 22 18 16 17 15 12 10 10 10 9 9 10 12 12 11 9 9 7 4 2 1 1 1 3 5 6 4 3 3 3 4 4 5 4 5 4 4 5 8 11 11 10
29 28 26 25 23 19 15 13 13 13 12 13 14 15 14 13 11 10 9 6 4 3 3 4 7 11 11 7 4 3 4 5 6 6 6 5 4 5 6 9 13 13 11
38 39 38 34 30 24 19 16 16 16 16 17 19 20 18 14 11 11 10 8 6 5 5 6 11 14 13 10 6 4 4 6 7 7 8 8 6 6 7 11 13 13 11
46 48 47 43 37 30 24 21 20 20 19 19 21 23 22 17 13 12 13 11 9 7 7 9 12 12 11 9 7 6 5 6 6 6 8 10 9 7 7 10 13 13 13
48 51 51 50 45 38 32 28 26 26 23 21 22 25 25 22 18 16 16 15 12 10 9 9 10 10 9 8 7 6 5 6 7 6 6 8 9 7 6 7 10 13 15
48 51 54 55 53 47 38 33 31 31 26 22 23 27 29 27 23 19 18 17 16 14 11 8 8 8 9 9 7 6 5 5 6 6 6 6 7 7 5 5 7 10 13
47 50 55 58 58 53 44 38 35 33 28 24 25 28 30 29 24 21 19 18 17 16 14 10 7 8 10 10 8 7 6 5 5 5 6 6 6 5 5 4 5 7 9
43 47 54 60 60 55 47 41 39 35 31 27 28 30 30 28 25 22 20 19 18 18 17 14 9 8 9 10 10 9 8 7 5 4 4 5 6 5 4 4 5 6 6

GEFSSE_con_probscp_228.txt.gz
Probability
0 0 0 0 0 0 0 0 0 0 0 0 0 0 0 0 0 0 0 0 0 0 0 0 0 0 0 1 1 0 0 0 0 0 0 0 0 0 0 0 0 0 0
0 0 0 0 0 0 0 0 0 0 0 0 0 0 0 0 0 0 0 0 0 0 0 0 0 0 1 2 2 1 0 0 0 0 0 0 0 0 0 0 0 0 0
0 0 0 0 0 0 0 0 0 0 0 0 0 0 0 0 0 0 0 0 0 0 0 0 0 0 1 2 2 1 0 0 0 0 0 0 0 0 0 0 0 0 0
0 0 0 0 0 0 0 0 0 0 0 0 0 0 0 0 0 0 0 0 0 0 0 0 0 0 0 1 1 0 0 0 0 0 0 0 0 0 0 0 0 0 0
0 0 0 0 0 0 0 0 0 0 0 0 0 0 0 0 0 0 0 0 0 0 0 0 0 0 0 0 0 1 1 0 0 0 0 0 0 0 0 0 0 0 0
0 0 0 0 0 0 0 0 0 0 0 0 0 0 0 0 0 0 0 0 1 1 0 0 0 0 0 0 0 2 2 1 0 0 0 0 0 0 0 0 0 0 0
1 0 1 1 1 0 0 0 0 0 0 0 0 0 0 0 1 1 1 1 2 2 1 0 0 0 0 0 0 1 3 2 0 0 0 0 0 0 0 0 0 0 0
2 1 1 1 1 0 0 0 0 0 0 0 0 0 0 0 1 2 2 3 3 2 1 0 0 0 0 0 0 1 2 1 0 0 0 0 0 0 0 0 0 0 0
2 1 0 0 1 1 1 1 1 1 0 0 0 0 0 0 1 1 2 3 2 1 0 0 0 0 0 0 0 1 2 1 0 0 0 0 0 0 0 0 0 0 0
1 1 0 0 0 0 1 2 3 2 1 0 1 0 0 0 0 0 1 2 2 1 0 0 0 0 0 0 0 2 2 2 0 0 0 0 1 2 1 0 0 0 0
1 1 0 0 0 0 1 2 3 3 1 1 1 0 0 0 0 0 0 1 2 2 1 1 0 0 0 0 0 1 2 1 0 0 0 1 2 3 2 1 0 0 0
2 1 0 0 0 0 0 1 2 3 3 2 1 0 0 0 0 0 0 1 1 1 1 1 0 0 0 0 0 1 1 0 0 0 0 2 3 3 3 2 1 0 0
6 4 2 2 1 1 1 2 3 3 3 2 1 0 0 0 0 0 0 0 0 0 1 1 0 0 0 0 0 0 0 0 0 0 1 3 3 3 3 3 2 1 1
9 7 5 4 3 3 3 4 3 3 3 2 0 0 0 0 0 0 0 0 0 0 0 0 0 0 0 0 0 0 0 0 0 0 1 3 3 3 3 3 3 2 2
11 10 8 6 5 5 5 5 4 4 3 2 1 0 0 0 0 0 0 0 0 0 0 0 0 0 0 0 0 0 0 0 0 0 1 2 3 3 3 3 3 3 2
12 13 12 11 8 7 5 5 5 5 4 4 1 0 0 0 0 0 0 0 0 0 0 0 0 0 0 0 0 0 0 0 0 0 0 2 3 4 3 3 3 3 3
13 15 15 14 12 8 5 4 5 5 4 3 1 0 0 0 0 0 0 0 0 0 0 0 0 0 0 0 0 0 0 0 0 0 0 1 3 3 4 4 4 4 4
14 14 15 16 13 8 4 4 4 4 3 2 1 1 2 1 1 1 0 0 0 0 0 0 0 0 0 0 0 0 0 0 0 0 0 1 1 2 3 5 6 6 6
13 14 15 15 11 6 4 4 4 3 3 2 2 3 4 3 2 2 1 0 0 0 0 0 0 0 0 0 0 0 0 0 0 0 0 0 0 0 1 4 6 7 8
15 15 15 14 10 6 4 4 4 4 4 4 4 5 5 4 4 3 2 0 0 0 0 0 0 0 0 0 0 0 0 0 0 0 0 0 0 0 0 1 3 5 6
16 15 15 14 11 9 8 7 6 6 6 6 6 6 5 4 4 5 4 2 1 0 0 0 0 0 0 0 1 1 0 0 0 0 0 0 0 0 0 0 1 1 2
17 17 17 16 15 14 13 12 10 8 7 7 7 5 3 3 4 5 5 3 2 1 0 0 0 0 0 1 2 2 1 1 1 0 0 0 0 0 0 0 0 0 1
24 23 23 22 20 19 19 16 14 11 9 8 7 5 2 3 4 4 4 3 2 1 0 0 0 1 1 2 3 3 3 2 2 1 0 0 0 0 0 0 0 0 0
30 30 30 29 26 25 23 20 17 14 11 9 8 5 3 2 3 4 4 3 1 0 0 1 1 2 3 3 3 3 3 3 3 2 1 0 0 0 0 0 0 0 0
32 33 36 36 33 31 28 24 20 17 13 10 9 7 4 2 2 3 4 3 1 1 1 2 3 3 3 3 3 3 3 3 3 3 2 1 0 0 0 0 0 0 0
30 35 39 39 37 35 32 28 24 19 15 12 10 7 4 2 1 2 3 3 1 2 2 3 3 3 3 3 3 3 3 3 3 3 3 2 1 0 0 0 0 0 0

GEFSSE_con_probscp_234.txt.gz
Probability
0 1 2 1 0 0 0 0 0 0 0 0 0 0 0 1 2 2 1 0 0 1 2 1 0 0 0 0 0 0 0 1 2 1 0 0 0 0 0 0 0 0 0
0 1 2 2 1 0 0 0 0 0 0 0 0 0 0 0 1 1 0 0 0 1 1 1 0 0 0 0 0 0 1 2 2 1 0 0 0 0 0 0 0 0 0
0 0 1 2 2 1 0 0 0 0 0 0 0 0 0 0 0 0 0 0 0 0 0 0 0 0 0 0 0 0 1 2 2 1 0 0 0 0 0 0 0 0 0
0 0 1 2 3 1 1 1 0 0 0 0 0 0 0 0 0 0 0 1 1 1 0 0 0 0 0 0 0 1 2 2 1 0 0 0 0 0 0 0 0 0 0
0 0 1 2 3 3 2 1 0 0 0 0 0 0 0 0 0 0 1 2 2 1 0 0 0 0 0 0 1 2 2 1 0 0 0 0 0 0 0 0 0 0 0
0 0 1 2 3 3 2 1 0 0 0 0 0 0 0 0 0 1 2 2 2 1 0 0 0 0 0 1 2 2 1 0 0 0 0 0 0 0 0 0 0 0 0
0 0 1 2 3 3 2 0 0 0 0 0 0 0 0 1 1 2 1 2 3 2 1 0 0 0 0 1 2 2 0 0 0 0 0 0 0 0 0 0 0 0 0
0 0 1 2 3 3 2 1 0 1 1 1 0 0 1 2 3 2 2 2 3 3 2 1 0 0 0 2 3 2 1 0 0 0 0 0 0 0 0 0 0 0 0
0 0 0 1 2 2 2 1 1 2 2 2 1 1 2 3 3 3 2 3 3 3 2 1 0 0 0 1 2 2 1 0 0 0 0 0 0 0 0 0 0 0 0
0 0 0 0 1 1 1 2 2 2 2 2 2 2 3 3 3 2 2 2 2 2 1 1 0 0 0 0 1 2 2 1 0 0 0 0 0 0 0 0 0 0 0
0 0 0 0 0 0 1 2 2 2 1 1 2 3 3 2 2 1 1 1 2 1 0 0 0 0 0 0 1 2 2 1 0 0 0 0 0 0 0 1 1 0 0
0 0 0 0 0 0 0 1 2 1 0 1 2 2 1 1 1 1 1 1 1 1 0 0 0 0 0 0 0 1 1 0 0 0 0 0 0 0 1 2 2 1 0
0 0 0 0 0 0 0 0 1 1 0 0 1 1 0 0 0 0 1 1 1 0 0 0 0 0 0 0 0 0 0 0 0 0 0 0 1 1 2 3 3 2 1
0 0 0 0 0 0 0 0 0 0 0 0 0 0 0 0 0 0 0 0 0 0 0 0 0 0 0 0 0 0 0 0 0 0 0 1 3 3 3 4 4 3 3
1 0 0 0 0 0 0 0 0 0 0 0 0 0 0 0 0 0 0 0 0 0 0 0 0 0 0 0 0 0 0 0 0 0 0 1 3 3 3 4 4 4 3
3 1 0 0 0 0 0 0 0 0 0 0 0 0 0 0 0 0 0 0 0 0 0 0 0 0 0 0 0 0 0 0 0 0 0 1 2 3 4 5 5 4 4
3 1 0 0 0 0 0 0 0 0 0 0 1 1 1 0 0 0 0 0 0 0 0 0 0 0 0 0 0 0 0 0 0 1 1 1 1 2 4 6 6 5 4
3 1 0 0 0 0 0 0 0 0 0 0 1 1 1 0 0 0 1 1 1 0 0 0 0 0 0 0 0 0 1 1 1 2 2 1 0 0 2 4 6 5 5
4 3 1 1 1 0 0 0 0 0 0 0 1 2 2 1 1 1 2 2 1 0 0 0 0 0 0 0 0 1 2 2 3 3 3 1 0 0 1 2 4 5 4
3 3 2 1 1 0 0 0 0 0 1 1 2 4 4 3 2 2 3 2 1 0 0 0 0 0 0 1 1 2 2 2 3 3 3 2 0 0 0 1 1 2 2
2 2 2 1 0 0 0 0 0 0 1 2 3 5 5 4 2 2 2 2 1 0 0 0 0 0 1 2 3 3 2 1 2 3 3 1 0 0 0 0 0 0 0
2 2 2 1 0 0 0 0 1 1 2 3 3 4 4 2 1 1 1 1 0 0 0 0 0 1 2 3 3 3 3 2 2 3 2 1 0 0 0 0 0 0 0
3 3 3 1 0 0 0 1 3 3 3 4 3 3 3 2 0 0 0 0 0 0 0 0 0 1 3 3 3 3 3 3 3 3 2 1 0 0 0 0 0 0 0
4 4 3 3 2 1 0 1 4 5 5 5 4 3 3 2 0 0 0 0 0 0 0 0 1 2 3 3 3 3 3 3 3 3 3 1 0 0 0 0 0 0 0
4 4 4 4 4 3 3 3 5 7 7 5 4 4 3 1 0 0 0 0 0 0 0 1 2 3 3 3 3 3 3 3 3 3 3 2 1 0 0 0 0 0 0
3 4 5 6 6 5 5 6 7 9 8 6 5 5 4 1 0 0 0 0 0 0 1 2 3 3 3 3 3 3 3 3 3 3 3 3 2 1 0 0 0 0 0

GEFSSE_con_probscp_240.txt.gz
Probability
1 2 1 0 0 0 0 1 2 2 1 0 1 2 2 2 2 1 0 0 0 0 0 1 2 2 2 2 3 3 3 3 3 2 2 3 5 6 4 2 0 0 0
1 1 1 0 0 0 1 2 2 2 1 0 0 1 1 1 2 1 0 0 0 0 1 2 2 3 3 3 3 3 3 3 2 1 1 2 4 5 4 2 0 0 0
0 0 0 0 0 0 1 2 2 1 1 0 0 0 0 1 2 2 1 1 1 1 1 2 2 2 2 2 2 2 2 2 1 0 0 0 1 2 1 1 0 0 0
0 0 0 0 0 0 1 1 1 0 0 0 0 0 0 1 3 3 3 2 2 1 1 1 0 0 0 0 0 1 1 1 1 0 0 0 0 0 0 0 0 0 0
0 0 0 0 0 0 0 0 0 0 0 0 0 0 1 2 3 3 3 3 3 2 0 0 0 0 0 0 0 0 0 0 1 0 0 0 0 0 0 0 0 0 0
0 0 0 0 0 0 0 0 0 0 0 0 0 0 1 2 3 3 3 3 2 1 0 0 0 0 0 0 0 0 0 1 1 0 0 0 0 0 0 0 0 0 0
0 0 0 0 0 0 0 0 0 0 0 0 0 1 1 3 3 3 3 3 1 0 0 0 0 0 0 0 0 0 0 1 0 0 0 0 1 1 1 0 0 0 0
0 0 0 0 0 0 0 0 0 0 1 1 1 2 3 3 3 3 3 2 1 0 0 0 0 0 0 0 0 0 0 0 0 0 0 0 1 2 1 0 0 0 0
0 0 0 0 0 0 1 1 1 1 2 2 2 2 3 3 3 3 3 3 1 0 0 0 0 0 0 0 1 1 0 0 0 0 0 1 2 3 2 1 0 0 0
0 0 0 0 0 0 1 1 1 2 3 4 3 3 2 2 3 3 3 3 2 1 0 0 0 0 0 1 2 2 1 0 0 0 1 2 3 3 3 2 1 1 1
1 1 0 0 0 0 1 2 2 3 3 4 3 3 3 3 3 3 3 3 2 1 0 0 0 0 0 2 3 4 2 0 0 0 1 2 3 3 3 3 3 2 2
0 0 0 0 0 0 1 3 3 3 3 3 3 3 3 4 4 4 3 3 1 0 0 0 0 0 0 1 3 4 2 0 1 1 1 2 3 3 3 3 3 3 3
0 0 0 0 0 0 1 2 3 3 2 3 3 2 2 3 4 3 4 3 1 0 0 0 0 0 0 0 2 2 1 1 2 2 2 3 3 3 3 3 3 3 3
0 0 0 0 0 1 1 2 2 2 1 2 3 3 3 3 2 2 4 4 2 0 0 0 0 0 0 1 2 2 1 2 3 3 3 3 3 3 3 3 3 3 3
0 0 0 1 2 3 3 3 3 3 2 2 3 5 4 2 1 1 3 3 1 0 0 0 0 0 0 1 2 2 2 2 2 2 3 3 3 3 3 3 2 2 3
0 0 1 4 5 5 5 4 3 4 5 4 4 5 5 3 2 2 3 3 1 0 0 0 0 0 0 1 2 3 3 3 3 3 3 3 3 3 3 3 2 2 2
1 0 1 4 6 7 6 5 4 5 6 5 5 5 6 5 5 4 5 5 2 1 1 1 0 0 1 2 3 3 3 3 3 3 3 3 3 3 3 3 2 1 1
2 2 2 3 5 6 6 5 5 5 6 6 6 7 7 7 6 6 6 5 3 2 2 2 1 1 2 3 3 3 3 3 3 3 3 3 3 3 3 3 1 0 0
3 4 4 4 5 6 5 5 6 6 7 8 8 9 8 7 7 6 6 4 3 3 3 3 2 3 5 5 4 3 3 3 3 3 3 3 4 4 4 4 2 1 0
4 6 8 8 9 8 7 6 6 8 9 9 9 9 9 8 7 6 6 5 4 3 3 2 2 4 6 7 5 4 3 3 3 4 3 4 4 5 5 6 6 4 2
5 8 11 12 13 13 10 8 7 8 9 9 8 8 8 7 7 6 5 5 4 2 2 1 2 3 5 6 6 5 4 4 4 4 4 3 4 5 6 7 9 8 5
6 9 11 13 16 15 12 9 8 8 9 8 8 8 8 8 7 6 5 4 3 1 0 0 1 3 4 4 5 6 5 5 5 5 4 5 6 7 7 8 11 10 8
6 8 11 15 18 18 14 10 9 9 9 9 9 9 8 8 8 8 6 4 2 1 0 0 1 3 3 4 5 6 5 5 5 5 5 6 8 9 9 9 11 10 8
5 7 11 15 21 23 19 14 12 10 9 9 11 10 8 8 9 9 6 3 2 1 0 1 2 3 3 4 5 6 5 5 5 5 4 5 8 10 11 10 10 8 7
4 5 10 17 23 25 23 18 15 12 9 10 12 11 10 9 10 8 4 2 1 0 1 2 3 3 3 3 4 5 5 5 6 6 5 4 6 8 10 10 10 8 7
3 4 9 18 25 27 24 19 16 14 12 11 12 12 12 12 11 7 4 2 1 0 1 2 3 3 3 3 4 4 4 5 6 7 6 5 5 6 8 11 11 9 8